{"data":{"norad_id":67966,"intl_designator":"2026-038F","name":"STARLINK-36820","alt_names":[],"object_type":"PAYLOAD","status":"ACTIVE","operator":null,"country":"US","launch_date":"2026-02-25","launch_site_code":"AFWTR","launch_vehicle":null,"mission":null,"orbit_class":"UNKNOWN","rcs_meters":null,"size_class":null,"mass_kg":null,"dimensions":null,"purposes":["comms"],"wikipedia_slug":null,"has_3d_model":false,"image_url":null,"decayed_at":null,"tle_current":{"epoch":"2026-09-19T14:28:29.740800Z","epoch_age_seconds":140756,"freshness":"FRESH","line1":"1 67966U 26038F   26262.60312200  .00005727  00000+0  17965-3 0  9996","line2":"2 67966  97.2847 270.9222 0001223  98.2134 261.9248 15.33431061 32950","mean_motion":15.33431061,"eccentricity":0.0001223,"inclination_deg":97.2847,"raan_deg":270.9222,"arg_perigee_deg":98.2134,"mean_anomaly_deg":261.9248,"bstar":0.00017965,"rev_number":3295,"period_min":93.907058271073,"perigee_km":464.74766029189,"apogee_km":466.42163460685,"semimajor_km":6843.7216474494,"source":"CELESTRAK","updated_at":"2026-09-20T09:00:43.714208Z"}}}